TimeEDT,TemperatureF,Dew PointF,Humidity,Sea Level PressureIn,VisibilityMPH,Wind Direction,Wind SpeedMPH,Gust SpeedMPH,PrecipitationIn,Events,Conditions,WindDirDegrees,DateUTC
12:54 AM,72.0,64.0,76,30.21,10.0,ENE,3.5,-,N/A,,Overcast,60,2013-08-18 04:54:00
1:54 AM,71.1,64.0,78,30.19,10.0,ENE,4.6,-,0.00,,Partly Cloudy,60,2013-08-18 05:54:00
2:54 AM,71.1,64.0,78,30.18,10.0,NE,5.8,-,N/A,,Partly Cloudy,50,2013-08-18 06:54:00
3:54 AM,72.0,64.9,78,30.17,10.0,NE,5.8,-,N/A,,Overcast,40,2013-08-18 07:54:00
4:54 AM,72.0,64.9,78,30.17,10.0,NE,8.1,-,N/A,,Overcast,50,2013-08-18 08:54:00
5:54 AM,72.0,64.9,78,30.17,10.0,NNE,8.1,-,N/A,,Overcast,30,2013-08-18 09:54:00
6:54 AM,71.1,66.0,84,30.17,9.0,NE,6.9,-,0.00,,Overcast,50,2013-08-18 10:54:00
7:20 AM,71.6,66.2,83,30.17,2.0,NE,8.1,-,0.00,Rain,Light Rain,40,2013-08-18 11:20:00
7:54 AM,70.0,66.9,90,30.18,2.5,NNE,8.1,-,0.00,Rain,Light Rain,30,2013-08-18 11:54:00
8:01 AM,69.8,66.2,88,30.17,3.0,NE,8.1,-,0.00,Rain,Light Rain,40,2013-08-18 12:01:00
8:09 AM,69.8,66.2,88,30.17,2.0,NE,9.2,-,0.00,Rain,Light Rain,50,2013-08-18 12:09:00
8:11 AM,69.8,66.2,88,30.17,1.8,NE,9.2,-,0.00,Rain,Light Rain,50,2013-08-18 12:11:00
8:24 AM,71.6,66.2,83,30.17,1.8,NE,11.5,-,0.01,Rain,Light Rain,50,2013-08-18 12:24:00
8:29 AM,71.6,66.2,83,30.17,2.0,NE,13.8,-,0.01,Rain,Light Rain,40,2013-08-18 12:29:00
8:54 AM,70.0,66.9,90,30.18,3.0,NE,10.4,-,0.01,,Overcast,40,2013-08-18 12:54:00
8:59 AM,69.8,66.2,88,30.18,2.5,NNE,12.7,-,0.00,Rain,Light Rain,30,2013-08-18 12:59:00
9:15 AM,69.8,66.2,88,30.17,2.5,NE,11.5,18.4,0.00,Rain,Light Rain,40,2013-08-18 13:15:00
9:34 AM,69.8,66.2,88,30.17,1.8,NNE,11.5,-,0.00,Rain,Light Rain,30,2013-08-18 13:34:00
9:41 AM,69.8,66.2,88,30.17,2.0,NNE,11.5,-,0.00,Rain,Light Rain,30,2013-08-18 13:41:00
9:54 AM,70.0,66.0,87,30.19,2.0,NNE,9.2,17.3,0.00,Rain,Light Rain,30,2013-08-18 13:54:00
10:07 AM,69.8,66.2,88,30.18,3.0,NNE,9.2,-,0.00,Rain,Light Rain,20,2013-08-18 14:07:00
10:14 AM,71.6,66.2,83,30.17,4.0,NNE,8.1,-,0.00,Rain,Light Rain,20,2013-08-18 14:14:00
10:34 AM,71.6,66.2,83,30.18,4.0,North,9.2,-,0.00,Rain,Light Rain,10,2013-08-18 14:34:00
10:54 AM,71.1,66.9,87,30.18,6.0,NNE,10.4,-,0.00,,Overcast,20,2013-08-18 14:54:00
11:01 AM,71.6,66.2,83,30.17,6.0,NNE,10.4,-,N/A,,Haze,20,2013-08-18 15:01:00
11:18 AM,71.6,68.0,88,30.17,5.0,NNE,5.8,-,N/A,,Overcast,30,2013-08-18 15:18:00
11:35 AM,71.6,66.2,83,30.18,2.0,NE,9.2,17.3,0.00,Rain,Light Rain,40,2013-08-18 15:35:00
11:43 AM,71.6,66.2,83,30.18,1.8,NNE,9.2,-,0.01,Rain,Light Rain,20,2013-08-18 15:43:00
11:54 AM,71.1,68.0,90,30.18,1.8,NNE,9.2,-,0.03,Rain,Light Rain,30,2013-08-18 15:54:00
12:03 PM,71.6,68.0,88,30.17,1.5,NNE,10.4,-,0.01,Rain,Light Rain,30,2013-08-18 16:03:00
12:15 PM,71.6,68.0,88,30.17,2.0,NNE,9.2,-,0.01,Rain,Light Rain,20,2013-08-18 16:15:00
12:23 PM,71.6,68.0,88,30.17,1.5,NNE,12.7,-,0.02,Rain,Light Rain,20,2013-08-18 16:23:00
12:37 PM,71.6,68.0,88,30.16,2.5,NNE,10.4,-,0.03,Rain,Light Rain,30,2013-08-18 16:37:00
12:54 PM,72.0,68.0,87,30.17,2.5,NNE,9.2,-,0.03,Rain,Light Rain,30,2013-08-18 16:54:00
1:15 PM,71.6,66.2,83,30.16,3.0,NNE,8.1,-,0.00,Rain,Light Rain,30,2013-08-18 17:15:00
1:46 PM,71.6,66.2,83,30.16,4.0,NNE,11.5,-,0.00,,Overcast,30,2013-08-18 17:46:00
1:54 PM,71.1,66.9,87,30.16,4.0,NNE,13.8,-,0.00,,Overcast,30,2013-08-18 17:54:00
2:32 PM,69.8,64.4,83,30.15,8.0,NNE,16.1,21.9,0.00,Rain,Light Rain,20,2013-08-18 18:32:00
2:42 PM,69.8,64.4,83,30.15,10.0,NNE,10.4,-,0.00,,Overcast,20,2013-08-18 18:42:00
2:54 PM,71.1,64.9,81,30.16,9.0,North,6.9,-,0.00,Rain,Light Rain,350,2013-08-18 18:54:00
3:01 PM,69.8,64.4,83,30.15,4.0,North,8.1,-,0.00,Rain,Light Rain,350,2013-08-18 19:01:00
3:07 PM,69.8,64.4,83,30.14,2.5,North,10.4,-,0.00,Rain,Light Rain,350,2013-08-18 19:07:00
3:14 PM,69.8,64.4,83,30.15,4.0,North,8.1,-,0.00,Rain,Light Rain,350,2013-08-18 19:14:00
3:21 PM,69.8,64.4,83,30.15,8.0,NNW,8.1,-,0.00,,Overcast,340,2013-08-18 19:21:00
3:54 PM,69.1,64.0,84,30.15,5.0,NNW,8.1,-,0.00,Rain,Light Rain,340,2013-08-18 19:54:00
4:54 PM,68.0,64.0,87,30.17,3.0,NW,8.1,-,0.00,Rain,Light Rain,320,2013-08-18 20:54:00
5:01 PM,68.0,64.4,88,30.16,2.0,NNW,10.4,-,0.01,Rain,Light Rain,330,2013-08-18 21:01:00
5:41 PM,68.0,62.6,83,30.16,10.0,NNE,8.1,-,0.01,,Overcast,30,2013-08-18 21:41:00
5:54 PM,68.0,63.0,84,30.16,10.0,NNE,4.6,-,0.01,,Overcast,30,2013-08-18 21:54:00
6:54 PM,69.1,63.0,81,30.16,10.0,Calm,Calm,-,N/A,,Overcast,0,2013-08-18 22:54:00
7:54 PM,68.0,64.0,87,30.18,10.0,NW,3.5,-,N/A,,Overcast,310,2013-08-18 23:54:00
8:54 PM,68.0,63.0,84,30.19,10.0,NNW,4.6,-,N/A,,Overcast,330,2013-08-19 00:54:00
9:54 PM,68.0,63.0,84,30.20,10.0,West,3.5,-,N/A,,Overcast,280,2013-08-19 01:54:00
10:54 PM,66.9,64.0,90,30.19,10.0,SW,3.5,-,N/A,,Overcast,230,2013-08-19 02:54:00
11:54 PM,66.9,63.0,87,30.19,10.0,WSW,4.6,-,N/A,,Overcast,240,2013-08-19 03:54:00